Theta_e
349 354 361 363 363 365 364 364 365 366 365 363 362 361 361 360 360 360 359 360 359 361 360 361 359 361 362 362 361 363 362 361 361 359 361 360 360 360 360 359 359 355 359
350 354 361 363 363 364 364 363 364 364 363 362 362 362 361 360 360 359 360 359 359 361 361 360 358 360 362 362 362 363 361 362 361 361 361 361 361 360 358 357 361 358 359
349 354 355 362 362 363 362 362 362 363 363 363 363 361 361 361 361 361 360 359 360 361 361 361 360 361 362 359 359 361 361 360 360 360 359 354 354 360 360 360 360 359 359
349 353 354 362 363 361 360 362 364 363 362 363 361 361 361 360 360 361 361 361 361 361 362 362 362 362 362 359 359 361 360 360 360 360 356 355 354 359 358 357 358 359 359
351 354 355 361 363 361 360 362 364 362 363 361 361 361 361 360 360 358 361 361 360 362 362 362 362 362 361 361 362 361 360 360 359 354 356 358 357 358 358 359 359 358 358
351 353 358 361 363 362 361 362 363 363 361 361 362 361 361 361 361 360 361 362 362 361 362 362 361 361 361 362 362 361 361 360 358 358 358 356 353 357 357 357 357 359 357
349 353 355 363 362 363 361 362 363 363 360 362 363 362 362 363 362 363 362 362 363 362 362 362 360 360 361 360 359 361 361 359 357 358 359 359 357 359 359 359 359 358 358
347 351 353 359 362 363 361 361 360 361 361 360 362 361 362 361 362 362 362 363 362 361 361 360 360 359 360 360 360 361 360 356 353 356 358 357 358 360 360 359 359 360 359
349 350 352 354 361 363 361 361 360 360 361 362 360 362 361 361 362 361 362 361 360 361 360 360 359 358 358 358 361 361 360 357 355 355 354 357 357 361 360 360 360 359 359
353 350 354 355 359 360 359 362 361 360 359 361 360 360 362 361 361 361 360 361 361 359 359 358 357 356 355 357 359 360 360 358 355 358 357 357 360 361 360 360 360 359 359
353 349 350 353 360 358 359 360 361 360 358 360 361 360 361 362 361 360 360 360 360 359 358 357 356 355 356 355 359 359 358 355 356 357 356 358 359 359 360 360 359 359 359
346 348 347 351 358 359 358 361 362 361 356 360 360 364 361 363 364 360 360 360 360 359 357 356 357 357 352 355 355 358 355 355 355 355 356 357 356 359 360 359 358 358 358
345 349 347 353 357 357 357 359 360 361 358 359 363 363 363 361 362 363 363 365 364 360 358 357 358 356 354 355 357 357 357 353 355 356 354 357 357 355 357 358 356 357 358
345 348 349 355 360 359 359 357 360 359 358 356 359 361 359 360 361 361 360 362 361 365 359 359 357 356 355 356 356 357 355 354 355 352 355 356 355 353 355 357 356 356 356
344 347 351 355 357 357 360 358 358 360 355 358 359 360 358 358 360 360 355 359 355 359 358 358 355 355 356 354 355 354 354 354 356 353 356 355 354 355 356 354 354 356 356
342 345 350 352 354 357 357 359 356 357 356 358 358 358 361 359 358 355 356 351 360 362 357 356 356 354 355 353 353 352 354 356 357 356 355 358 356 351 347 351 351 355 357
339 343 346 349 354 355 356 356 356 355 356 356 356 360 360 363 364 356 355 351 358 364 361 353 356 356 353 349 350 354 355 356 355 356 354 355 355 357 353 352 352 354 357
338 339 346 349 350 352 353 354 353 356 358 356 358 358 361 362 362 360 350 355 357 357 357 356 352 353 353 353 349 352 354 357 356 355 355 353 354 353 353 354 353 357 358
339 339 344 349 349 350 352 353 353 357 358 358 359 358 361 363 363 360 362 358 358 358 354 353 353 354 351 351 351 353 354 356 357 354 354 353 353 353 353 353 356 355 357
341 343 345 347 351 353 352 354 352 355 356 358 358 359 362 363 362 359 359 359 357 352 353 354 355 352 350 351 348 350 355 356 357 355 351 353 352 353 352 352 351 351 355
344 344 344 347 351 352 350 349 350 350 353 355 357 360 361 363 363 362 356 355 357 355 355 357 357 353 348 353 350 349 350 352 353 354 355 354 352 351 353 353 351 352 352
342 344 345 348 351 352 351 352 354 354 354 356 358 360 361 362 364 362 356 350 357 354 356 355 355 351 350 356 351 350 337 343 349 352 354 351 351 352 352 354 353 353 353
340 342 344 347 351 353 354 354 354 354 355 353 354 355 359 362 363 363 362 357 360 355 352 354 354 354 353 355 353 346 339 334 345 352 352 352 353 353 352 354 355 355 354
340 342 342 345 349 351 355 354 355 350 348 351 353 355 357 361 361 362 364 361 359 356 355 354 354 355 356 353 354 352 349 348 345 344 349 352 354 354 354 354 354 356 356
340 341 341 345 350 353 355 356 352 352 351 353 354 355 358 359 361 361 362 360 358 356 358 355 354 355 354 356 359 355 350 350 351 349 345 346 351 353 355 355 355 356 357
338 339 339 342 346 352 353 353 355 355 353 351 351 350 351 355 353 358 360 360 359 356 357 356 356 357 356 355 358 361 353 354 354 353 345 345 344 350 353 355 355 356 357
Wind_Speed
11 12 13 15 15 14 15 15 15 15 14 13 13 11 10 9 9 9 9 9 8 9 9 11 12 13 16 15 16 15 16 16 16 16 17 16 17 17 17 16 15 16 16
17 15 14 13 15 15 15 15 14 13 13 12 11 10 9 8 8 8 8 8 8 10 11 12 14 14 15 15 16 16 15 15 14 16 16 16 16 16 15 14 12 16 16
17 15 15 14 15 16 14 14 14 13 12 11 9 8 8 9 9 9 10 9 10 11 11 12 14 14 15 15 14 14 15 13 15 15 11 10 12 14 15 15 15 15 14
17 15 15 13 15 16 14 13 13 13 10 11 8 7 10 8 8 9 12 11 12 12 11 13 13 14 14 15 15 13 13 15 15 13 8 9 11 14 14 14 14 14 15
16 14 14 14 15 16 14 13 13 13 10 10 8 8 9 10 11 12 15 14 13 12 12 13 12 13 12 14 15 13 13 15 14 10 9 7 9 12 14 13 13 13 12
16 14 15 14 15 16 14 13 13 12 10 9 9 8 10 12 15 16 16 15 13 12 13 13 12 11 12 12 13 13 14 13 11 9 8 9 9 13 13 13 12 13 12
16 13 14 12 14 15 13 12 11 12 10 7 9 9 10 12 12 15 14 14 14 13 13 12 11 11 11 9 9 11 13 11 9 7 7 7 11 11 12 12 12 12 11
16 13 13 12 12 14 13 12 11 10 10 8 9 8 9 9 11 12 13 13 13 13 12 12 10 11 10 9 9 10 11 10 8 8 7 6 7 12 13 12 13 12 12
13 13 11 12 10 13 12 11 10 8 8 7 7 9 8 8 9 9 10 11 10 11 12 11 9 9 9 9 11 11 10 9 7 5 6 6 6 11 12 13 12 11 11
11 12 11 10 9 9 10 10 10 8 7 6 7 6 8 7 6 9 6 8 10 9 10 10 9 7 6 7 10 10 10 9 7 5 4 6 4 10 11 12 11 11 11
10 11 11 11 10 9 8 8 9 8 6 5 6 5 6 4 5 6 5 6 9 8 9 10 8 6 5 6 10 11 8 4 5 3 3 5 3 8 10 10 10 9 10
13 13 11 11 10 10 7 7 6 5 4 3 3 3 3 4 4 3 5 5 8 7 7 8 8 7 2 2 5 8 3 5 4 3 3 2 3 8 9 9 9 9 9
14 11 13 11 9 10 7 6 4 3 4 4 4 3 3 2 3 3 3 2 2 5 3 4 4 2 4 3 5 2 4 5 3 3 6 3 3 4 7 9 8 8 8
13 13 12 11 9 9 6 6 5 4 4 4 4 5 4 3 3 3 2 3 2 4 5 3 2 2 4 4 5 5 5 4 2 2 3 2 2 1 2 6 7 7 8
10 13 12 12 10 8 8 6 5 5 5 4 4 5 4 4 3 2 2 2 2 3 3 4 3 3 4 4 4 4 5 4 3 3 1 6 3 2 5 3 6 7 7
5 9 11 11 9 10 8 7 5 5 5 5 4 5 5 4 4 2 3 1 4 4 3 3 3 3 3 3 3 5 4 2 2 3 3 6 11 7 3 1 3 6 8
7 9 11 10 12 11 10 7 7 5 5 5 5 5 6 6 5 4 3 2 4 4 5 2 4 3 3 3 4 3 3 3 3 4 4 4 5 8 8 5 2 5 6
11 10 10 10 12 13 10 8 7 6 5 5 4 4 7 7 6 5 3 5 3 4 4 4 3 4 4 3 4 3 2 2 3 3 3 4 4 3 5 4 3 5 7
16 11 12 12 12 11 10 8 8 7 6 5 4 5 8 7 7 6 5 6 5 3 5 4 4 5 4 4 2 2 1 2 3 3 5 5 5 4 3 5 5 5 7
16 15 13 9 11 10 7 7 6 6 6 5 4 5 7 6 7 5 4 3 4 5 5 5 5 4 3 3 2 1 2 2 2 3 4 5 6 6 5 6 5 6 6
15 15 16 13 12 9 7 6 7 8 7 6 5 6 7 7 8 7 5 2 4 6 9 9 5 4 4 3 2 2 2 3 4 4 4 4 5 6 6 5 4 3 5
17 16 16 14 13 12 9 7 5 6 5 5 5 6 6 7 8 7 5 6 9 6 6 7 8 4 4 4 2 1 3 5 5 5 4 5 6 4 6 7 7 7 5
19 18 17 15 15 13 12 8 5 3 2 3 5 5 6 8 9 10 9 8 8 7 7 8 8 8 5 6 5 3 3 5 2 3 5 5 5 5 5 6 7 8 7
22 17 17 16 15 13 13 10 12 9 9 8 7 6 6 9 10 11 7 8 7 7 8 8 8 6 6 6 5 5 4 2 2 2 4 5 6 6 6 6 7 7 7
20 20 18 16 15 14 14 13 11 12 9 7 6 7 8 7 9 8 8 9 8 8 9 9 9 9 7 6 5 3 6 3 2 2 2 5 4 5 6 6 6 6 8
20 20 19 16 17 16 15 16 15 14 12 9 9 7 6 6 5 8 9 9 9 7 8 9 10 10 10 8 6 5 5 3 3 4 3 2 5 5 6 6 7 6 6
Wind_Direction
153 153 136 130 123 118 110 109 107 108 109 109 114 119 123 129 133 132 123 116 109 96 99 97 99 112 118 116 112 106 104 107 112 109 107 107 111 109 106 112 125 105 102
147 151 140 137 129 121 117 114 110 110 109 110 113 117 126 127 130 133 127 120 115 107 105 103 105 109 107 109 109 111 109 111 116 109 111 105 107 107 112 111 103 109 115
146 146 148 134 132 122 120 119 117 113 112 116 114 120 118 127 131 131 127 127 117 111 108 111 111 109 106 106 107 107 103 104 109 109 114 110 105 113 116 113 109 108 111
146 146 146 138 136 126 125 126 121 115 117 105 114 109 120 116 119 127 129 127 112 119 112 109 108 108 109 108 110 110 112 113 110 112 116 115 111 122 121 116 116 118 114
144 145 141 142 139 132 132 130 120 120 108 102 106 106 114 108 101 118 127 115 113 116 106 98 100 105 110 111 105 108 106 108 107 109 112 115 118 114 115 117 123 123 124
145 147 139 149 144 135 133 129 123 120 112 110 107 105 107 108 108 112 116 117 112 116 108 106 105 108 118 114 107 110 108 107 116 109 118 121 118 126 125 116 115 115 116
145 150 147 156 150 138 136 131 121 116 115 105 105 107 108 112 113 115 118 120 119 114 113 104 109 114 117 119 111 112 114 117 115 113 112 129 112 117 119 117 119 119 114
150 152 151 158 160 142 142 137 129 124 125 109 101 103 112 102 114 113 117 119 118 117 109 109 107 110 107 117 126 118 123 128 125 121 121 114 107 116 115 118 121 122 122
149 155 153 162 165 150 150 153 139 134 124 122 109 115 108 115 117 127 131 126 120 119 119 113 110 106 104 117 123 123 122 120 123 116 131 117 133 118 120 120 118 117 120
155 157 159 162 172 166 163 159 148 148 143 136 126 113 123 127 121 121 124 130 125 127 122 124 121 112 96 100 143 121 125 121 118 130 117 101 174 130 122 117 123 117 117
155 169 169 170 182 172 171 165 166 160 162 153 141 137 119 109 138 145 114 143 137 136 130 130 125 118 104 115 153 143 131 116 137 135 138 105 168 133 129 125 122 118 127
171 175 177 182 176 172 178 185 180 172 174 166 150 140 152 138 136 156 155 163 141 136 132 132 129 112 160 146 139 153 138 125 145 141 120 115 177 150 138 134 130 135 128
180 176 185 186 190 191 188 190 192 185 185 187 188 193 159 152 168 158 168 153 130 158 128 155 134 94 135 167 137 152 129 140 126 151 115 160 208 165 164 152 145 141 137
187 179 191 186 196 200 195 197 199 202 199 208 199 199 189 194 180 196 197 169 183 160 151 166 134 141 125 123 157 137 135 130 145 162 118 198 205 88 142 153 155 164 163
179 185 192 194 192 203 204 206 216 212 215 215 211 202 207 208 200 175 213 203 149 124 154 163 172 172 148 152 169 185 168 131 195 164 179 99 288 130 147 166 170 168 169
182 191 196 199 197 208 213 212 226 227 226 224 217 213 208 220 200 184 188 184 207 167 170 172 174 192 185 203 185 180 160 91 148 173 162 153 205 197 220 318 198 186 186
197 198 211 201 209 212 215 219 228 228 223 228 226 214 217 233 228 186 193 182 216 167 166 145 176 204 188 217 225 187 173 139 144 152 172 171 170 190 198 218 225 197 199
191 207 217 213 212 213 216 217 227 223 225 218 221 234 228 224 236 217 156 196 188 189 180 167 181 208 226 236 235 223 224 226 199 186 198 195 182 207 189 216 212 199 207
202 210 218 212 214 211 213 221 227 234 235 234 209 232 250 239 218 230 201 186 176 214 201 178 199 229 208 212 225 222 254 222 214 195 217 211 184 172 182 167 203 196 211
207 212 222 215 214 206 207 212 227 233 236 239 235 238 232 230 213 218 261 175 180 190 211 211 207 201 234 208 236 273 350 312 292 209 228 188 198 213 211 216 198 185 202
219 220 218 216 208 197 199 212 226 230 226 227 228 236 236 222 214 203 225 80 215 206 208 208 184 210 205 194 228 234 256 283 262 242 230 212 194 206 210 220 227 232 185
221 222 217 218 213 206 205 209 212 197 220 224 219 237 232 220 210 199 203 162 228 211 224 211 205 182 199 185 198 181 237 213 216 222 221 215 209 214 215 213 224 223 237
218 217 218 215 212 211 209 205 189 169 187 206 219 227 231 229 217 211 198 195 204 223 209 206 212 203 186 186 196 252 183 233 194 171 210 212 197 214 230 225 225 218 216
217 212 214 214 215 212 203 211 215 221 234 231 229 220 222 231 233 222 200 210 212 214 224 201 205 218 205 190 199 220 254 300 201 211 197 215 213 221 228 224 224 221 220
216 217 213 206 205 208 203 212 215 230 235 236 217 226 224 223 242 224 216 209 215 218 223 207 195 206 216 204 205 174 214 202 164 247 199 177 202 223 216 227 212 213 213
212 214 213 206 204 198 200 207 216 225 222 225 225 226 225 213 225 228 218 218 218 215 223 206 208 207 213 220 218 219 224 202 211 222 237 166 186 187 213 211 219 210 206